Погода в Райме

Йемен     14°39′37″N   43°40′13″E
темп.,
°C
ветер,
м/с
пор.,
м/с
влажн.,
%
обл.,
%
осадки,
мм/ч
давл.,
гПа
погр.,
м
16 мая, вс
вс1600:00+24св1158100 0.1 1010183
03:00+24всв115911 0.1 100916
06:00+23ссз116219 0.0 101022
09:00+26зсз215026 0.0 1011723
12:00+29зсз43435 0.0 10091776
15:00+28ссз134166 0.9 10081724
18:00+22в44605 3.2 1011308
21:00+23в225194 3.2 1012157
17 мая, пн
пн1700:00+24в225130 0.0 101129
03:00+24вюв115225 0.0 100911
06:00+23в22504 0.0 101013
09:00+28зсз00334 0.0 1011682
12:00+31зсз443113 0.0 10102272
15:00+30зсз543624 0.0 10081748
18:00+28з33355 0.0 10091222
21:00+26ссз113778 0.1 1012101
18 мая, вт
вт1800:00+26вюв114331 0.0 101063
03:00+25вюв115325 0.0 100923
06:00+24всв115423 0.0 101014
09:00+29ссз11348 0.0 1011754
12:00+31зсз433152 0.0 10091868
15:00+29зсз4435100 0.0 10081204
18:00+28зсз3332100 0.0 1009980
21:00+26з1146100 0.0 1011176
19 мая, ср
ср1900:00+25в1151100 0.0 101118
03:00+24всв1149100 0.0 101011
06:00+24в2246100 0.0 101014
09:00+28с1134100 0.0 1011577
12:00+32сз562391 0.0 10082772
15:00+30зсз553589 0.0 10071138
18:00+28зсз33325 0.0 1009746
21:00+26зюз01405 0.0 101180
20 мая, чт
чт2000:00+26всв114123 0.0 101012
03:00+24св114487 0.0 100811
06:00+24вюв2243100 0.0 100915
09:00+30всв2224100 0.0 1010636
12:00+33сз2513100 0.0 10083673
15:00+31зсз653274 0.0 10071374
18:00+29зсз443785 0.0 1008608
21:00+27сз224434 0.0 1010109